STARLINK-32274

Last updated on Tue Oct 01 2024 00:02:04 GMT+0000 (Coordinated Universal Time)

1 60922U 24154V 24274.08625348 .00002015 00000+0 44282-4 0 9991 2 60922 53.1617 205.8557 0001361 70.4107 289.7049 15.49308870 5869

Satellite not in orbit

STARLINK-32274